Other Public Products
Issued by NWS Charleston, SC

Current Version | Previous Version | Graphics & Text | Print | Product List | Glossary On
Versions: 1 2 3 4 5 6 7 8 9 10 11 12 13 14 15 16 17 18 19 20 21 22 23 24 25 26 27 28 29 30 31 32 33 34 35 36 37 38 39 40 41 42 43 44 45 46 47 48 49 50
000
FPUS82 KCHS 202027
OPUCHS

TEST...KCHS/KSAV Gateway Observations...TEST
National Weather Service Charleston SC
400 PM EDT THU JUL 20 2017

NOTE: "fair" indicates few or no clouds below 12,000 feet with no
significant weather and/or obstructions to visibility.

SCZ050-WAZ558-NCZ071-TXZ119-213-PAZ071-DCZ001-FLZ074-172-MI076-
NYZ176-178-MAZ016-IL014-TNZ027-NJZ106-GAZ044-MD014-202100-

...Gateway Observations for Charleston International...

CITY           SKY/WX    TMP DP  RH WIND       PRES   REMARKS
Chas Airport   CLOUDY    86  67  52 S9        30.03F
Seattle        PTSUNNY   68  53  58 S14       30.16R
Charlotte      MOSUNNY   95  69  42 VRB6      30.04F HX 100
Dallas DFW     MOSUNNY   98  68  37 S9        30.03F HX 103
Dallas Love    MOSUNNY   97  68  38 S6        30.03F HX 102
Philladelphia  CLOUDY    95  66  38 W17       29.91F HX  98
Wash National  CLOUDY    96  68  39 W10       29.94F HX 101
Baltimore      CLOUDY    96  68  39 W10       29.92F HX 101
Miami          CLOUDY    89  76  65 S5        30.05F HX 100
Detroit        CLOUDY    83  68  60 SW10      29.99R
Newark         PTSUNNY   97  60  29 W18G24    29.88F HX  97
Laguardia      MOSUNNY   96  63  33 W12       29.86F HX  97
J F K          PTSUNNY   88  76  67 S18       29.90F HX  99
Boston Logan   CLOUDY    90  66  45 SW12      29.84F HX  92
Ft. Lauderdale TSTM      79  74  84 NE8       30.05S
Chicago O`Hare CLOUDY    86  73  65 W8        29.95S HX  93
Chicago Midway PTSUNNY   88  74  63 W14       29.94S HX  96
Houston Bush   MOSUNNY   94  71  47 VRB3      30.05F HX 101
Houston Hobby  MOSUNNY   96  72  45 S6        30.05F HX 104
Nashville      PTSUNNY   93  70  46 NW7       30.09F HX  99
Atlanta        MOSUNNY   93  68  43 NW12G20   30.07F HX  97

$$

GAZ044-118-TXZ119-213-NCZ071-DCZ001-MDZ014-506-PAZ021-071-NJZ106-
NYZ176-178-MAZ106-OHZ011-021-055-MIZ076-KYZ091-ILZ014-INZ047-
MNZ060-ONZ431-202100-

...Gateway Observations for Savannah International...

CITY           SKY/WX    TMP DP  RH WIND       PRES   REMARKS
Savannah Arpt  TSTM      80  71  74 E9G21     30.04F
Atlanta        MOSUNNY   93  68  43 NW12G20   30.07F HX  97
Charlotte      MOSUNNY   95  69  42 VRB6      30.04F HX 100
Dallas DFW     MOSUNNY   98  68  37 S9        30.03F HX 103
Houston Bush   MOSUNNY   94  71  47 VRB3      30.05F HX 101
Wash National  CLOUDY    96  68  39 W10       29.94F HX 101
Wash Dulles    CLOUDY    92  69  47 S10       29.95F HX  97
Baltimore      CLOUDY    96  68  39 W10       29.92F HX 101
Philadelphia   CLOUDY    95  66  38 W17       29.91F HX  98
Newark         PTSUNNY   97  60  29 W18G24    29.88F HX  97
Laguardia      MOSUNNY   96  63  33 W12       29.86F HX  97
J F K          PTSUNNY   88  76  67 S18       29.90F HX  99
Boston         CLOUDY    90  66  45 SW12      29.84F HX  92
Pittsburg      PTSUNNY   87  70  56 SW8       29.99F HX  92
Akron          CLOUDY    89  67  47 W16       30.00S HX  92
Cleveland      PTSUNNY   88  69  53 NW13      30.01R HX  92
Cincinnati     CLOUDY    89  77  67 SW9G21    30.01F HX 101
Columbus       PTSUNNY   84  76  77 W6        30.01R HX  94
Detroit        CLOUDY    83  68  60 SW10      29.99R
Chicago O`Hare CLOUDY    86  73  65 W8        29.95S HX  93
Minneapolis    MOSUNNY   85  68  56 VRB7      30.02S
Indianapolis   PTSUNNY   88  74  63 SW13      30.00F HX  96
Toronto Canada PTSUNNY   70  59  68 S5        29.93F

$$




USA.gov is the U.S. government's official web portal to all federal, state and local government web resources and services.